User: anonymous   Login
Location: Festilli
(46.4000°N, 11.6667°E)
Time: 12:31:58
(UTC+00:00)
Language:

Cosmos 44 Rocket - Orbit

View from above orbital plane
View from above orbital plane
View from above satellite
View from above satellite

Ground track
Ground track

The orbit data is extracted from the following two-line orbital elements,

1   877U 64053B   21138.05398967 -.00000058  00000-0  13551-4 0  9995
2   877  65.0786  71.1211 0083451 268.9967  90.1570 14.59428530 10315
Epoch (UTC): 18 May 2021 01:17:44
Eccentricity: 0.0083451
inclination: 65.0786°
perigee height: 636 km
apogee height: 754 km
right ascension of ascending node: 71.1211°
argument of perigee: 268.9967°
revolutions per day: 14.59428530
mean anomaly at epoch: 90.1570°
orbit number at epoch: 1031

The dashed part of the orbit path shows where the satellite is in the earth's shadow,  

DLR